Weather History for Hallock, MN

Change the Weather History Date:

Thursday, November 21, 2013

  Actual Average Record
Temperature  
Mean Temperature 6 °F -  
Max Temperature 15 °F 29 °F 52 °F (1990)
Min Temperature -4 °F 13 °F -19 °F (1978)
Degree Days  
Heating Degree Days 60    
Moisture  
Dew Point 2 °F    
Average Humidity 79    
Maximum Humidity 86    
Minimum Humidity 72    
Precipitation  
Precipitation 0.00 in - - ()
Sea Level Pressure  
Sea Level Pressure 30.48 in    
Wind  
Wind Speed 16 mph (NW)    
Max Wind Speed 24 mph    
Max Gust Speed 29 mph    
Visibility 7 miles    
Events Snow    
Averages and records for this station are not official NWS values.
T = Trace of Precipitation, MM = Missing Value Source: NWS Daily Summary

Daily Weather History Graph

Daily Weather History Graph

Search for Another Location

Airport:

Trip Planner

Search our weather history database for the weather conditions in past years. The results will help you decide how hot, cold, wet, or windy it might be!

Date:

Astronomy

Nov. 21, 2013 Rise Set
Actual Time 7:46 AM CST 4:41 PM CST
Civil Twilight 7:10 AM CST 5:16 PM CST
Nautical Twilight 6:31 AM CST 5:55 PM CST
Astronomical Twilight 5:54 AM CST 6:32 PM CST
Moon 8:21 PM CST (11/21) 10:51 AM CST (11/21)
Length of Visible Light 10h 05m
Length of Day
8h 54m
Waning Gibbous, 85% of the Moon is Illuminated
Nov 21
Waning Gibbous
Nov 25
Last Quarter
Dec 2
New
Dec 9
First Quarter
Dec 17
Full

Hourly Weather History & Observations

Time (CST) Temp. Windchill Dew Point Humidity Pressure Visibility Wind Dir Wind Speed Gust Speed Precip Events Conditions
12:13 AM 15.8 °F -1.1 °F 12.2 °F 86% 30.22 in 1.2 mi NNW 19.6 mph 24.2 mph N/A Snow Light Snow
12:33 AM 15.8 °F -2.3 °F 10.4 °F 79% 30.24 in 1.5 mi NNW 23.0 mph 26.5 mph N/A Snow Light Snow
12:53 AM 15.8 °F -1.9 °F 10.4 °F 79% 30.25 in 2.5 mi NNW 21.9 mph 27.6 mph N/A Snow Light Snow
1:13 AM 15.8 °F -1.5 °F 10.4 °F 79% 30.26 in 2.0 mi NNW 20.7 mph 27.6 mph N/A Snow Light Snow
1:33 AM 14.0 °F -3.0 °F 10.4 °F 86% 30.26 in 4.0 mi NNW 18.4 mph 26.5 mph N/A Snow Light Snow
1:53 AM 14.0 °F -4.7 °F 10.4 °F 86% 30.28 in 1.5 mi NNW 23.0 mph 28.8 mph N/A Snow Light Snow
2:13 AM 14.0 °F -5.1 °F 10.4 °F 86% 30.29 in 2.0 mi NNW 24.2 mph 27.6 mph N/A Snow Light Snow
2:33 AM 14.0 °F -3.4 °F 10.4 °F 86% 30.30 in 3.0 mi NNW 19.6 mph - N/A Snow Light Snow
2:53 AM 14.0 °F -4.3 °F 10.4 °F 86% 30.32 in 5.0 mi NNW 21.9 mph 28.8 mph N/A   Mist
3:13 AM 14.0 °F -3.4 °F 10.4 °F 86% 30.32 in 7.0 mi NNW 19.6 mph 26.5 mph N/A Snow Light Snow
3:33 AM 14.0 °F -2.5 °F 10.4 °F 86% 30.34 in 5.0 mi NNW 17.3 mph 26.5 mph N/A Snow Light Snow
3:53 AM 14.0 °F -4.3 °F 8.6 °F 79% 30.34 in 7.0 mi NNW 21.9 mph - N/A Snow Light Snow
4:13 AM 14.0 °F -4.3 °F 10.4 °F 86% 30.36 in 4.0 mi NNW 21.9 mph 25.3 mph N/A Snow Light Snow
4:34 AM 14.0 °F -4.3 °F 10.4 °F 86% 30.36 in 5.0 mi NNW 21.9 mph 25.3 mph N/A Snow Light Snow
4:53 AM 14.0 °F -3.4 °F 10.4 °F 86% 30.38 in 3.0 mi NNW 19.6 mph 24.2 mph N/A Snow Light Snow
5:13 AM 14.0 °F -3.4 °F 10.4 °F 86% 30.39 in 4.0 mi NNW 19.6 mph 27.6 mph N/A Snow Light Snow
5:34 AM 12.2 °F -5.8 °F 8.6 °F 85% 30.40 in 2.0 mi NNW 19.6 mph 23.0 mph N/A Snow Light Snow
5:53 AM 10.4 °F -7.7 °F 6.8 °F 85% 30.41 in 4.0 mi NNW 18.4 mph - N/A Snow Light Snow
6:13 AM 10.4 °F -7.7 °F 6.8 °F 85% 30.42 in 3.0 mi NNW 18.4 mph - N/A Snow Light Snow
6:34 AM 10.4 °F -6.6 °F 5.0 °F 79% 30.43 in 10.0 mi NNW 16.1 mph - N/A   Unknown
6:53 AM 8.6 °F -9.5 °F 3.2 °F 79% 30.44 in 10.0 mi NNW 17.3 mph - N/A   Unknown
7:13 AM 8.6 °F -8.9 °F 3.2 °F 79% 30.46 in 10.0 mi NNW 16.1 mph - N/A   Unknown
7:34 AM 8.6 °F -8.3 °F 3.2 °F 79% 30.46 in 10.0 mi NNW 15.0 mph - N/A   Unknown
7:53 AM 6.8 °F -8.6 °F 1.4 °F 79% 30.47 in 10.0 mi NNW 11.5 mph - N/A   Unknown
8:13 AM 6.8 °F -8.6 °F 1.4 °F 79% 30.48 in 10.0 mi NNW 11.5 mph - N/A   Unknown
8:34 AM 6.8 °F -6.9 °F 1.4 °F 79% 30.50 in 10.0 mi NNW 9.2 mph - N/A   Unknown
8:53 AM 6.8 °F -7.8 °F 1.4 °F 79% 30.50 in 10.0 mi NNW 10.4 mph - N/A Snow Light Snow
9:13 AM 6.8 °F -7.8 °F 1.4 °F 79% 30.51 in 10.0 mi NNW 10.4 mph - N/A   Unknown
9:34 AM 6.8 °F -11.3 °F 1.4 °F 79% 30.51 in 10.0 mi NNW 16.1 mph - N/A   Unknown
9:53 AM 6.8 °F -11.3 °F 1.4 °F 79% 30.52 in 7.0 mi NNW 16.1 mph - N/A   Unknown
10:13 AM 6.8 °F -10.7 °F 1.4 °F 79% 30.54 in 7.0 mi NNW 15.0 mph - N/A   Unknown
10:34 AM 8.6 °F -7.0 °F 1.4 °F 73% 30.55 in 10.0 mi NW 12.7 mph - N/A   Unknown
10:53 AM 8.6 °F -9.5 °F 1.4 °F 73% 30.55 in 7.0 mi NNW 17.3 mph - N/A   Unknown
11:13 AM 8.6 °F -10.0 °F 1.4 °F 73% 30.55 in 10.0 mi NNW 18.4 mph - N/A   Unknown
11:34 AM 8.6 °F -7.7 °F 1.4 °F 73% 30.56 in 7.0 mi NNW 13.8 mph 21.9 mph N/A   Unknown
11:53 AM 8.6 °F -7.0 °F 3.2 °F 79% 30.56 in 4.0 mi NNW 12.7 mph - N/A   Haze
12:13 PM 8.6 °F -8.3 °F 1.4 °F 73% 30.56 in 10.0 mi NNW 15.0 mph - N/A   Unknown
12:34 PM 8.6 °F -7.7 °F 1.4 °F 73% 30.55 in 4.0 mi NNW 13.8 mph - N/A   Haze
12:53 PM 8.6 °F -7.0 °F 1.4 °F 73% 30.55 in 7.0 mi NNW 12.7 mph - N/A   Unknown
1:13 PM 8.6 °F -2.6 °F 3.2 °F 79% 30.55 in 5.0 mi NNW 6.9 mph - N/A   Haze
1:33 PM 8.6 °F -4.7 °F 3.2 °F 79% 30.55 in 2.0 mi NW 9.2 mph - N/A   Haze
1:53 PM 8.6 °F -3.7 °F 3.2 °F 79% 30.55 in 2.5 mi NW 8.1 mph - N/A   Haze
2:13 PM 8.6 °F -4.7 °F 1.4 °F 73% 30.55 in 5.0 mi NW 9.2 mph - N/A   Haze
2:33 PM 8.6 °F -4.7 °F 1.4 °F 73% 30.56 in 10.0 mi WNW 9.2 mph - N/A   Unknown
2:53 PM 8.6 °F -4.7 °F 1.4 °F 73% 30.56 in 10.0 mi WNW 9.2 mph - N/A   Unknown
3:13 PM 8.6 °F -4.7 °F 1.4 °F 73% 30.57 in 10.0 mi NW 9.2 mph - N/A   Unknown
3:33 PM 8.6 °F -5.5 °F 1.4 °F 73% 30.57 in 10.0 mi NW 10.4 mph - N/A   Unknown
3:53 PM 6.8 °F -6.9 °F -0.4 °F 72% 30.58 in 10.0 mi WNW 9.2 mph - N/A   Unknown
4:13 PM 6.8 °F -3.5 °F -0.4 °F 72% 30.58 in 10.0 mi WNW 5.8 mph - N/A   Unknown
4:33 PM 6.8 °F -3.5 °F -0.4 °F 72% 30.59 in 10.0 mi WNW 5.8 mph - N/A   Unknown
4:53 PM 6.8 °F -0.1 °F -0.4 °F 72% 30.59 in 1.5 mi NW 3.5 mph - N/A   Haze
5:13 PM 5.0 °F - -0.4 °F 78% 30.59 in 10.0 mi Calm Calm - N/A   Unknown
5:33 PM 5.0 °F - -0.4 °F 78% 30.59 in 10.0 mi Calm Calm - N/A   Unknown
5:53 PM 1.4 °F -6.2 °F -2.2 °F 85% 30.58 in 10.0 mi South 3.5 mph - N/A   Unknown
6:14 PM -2.2 °F -15.6 °F -5.8 °F 85% 30.57 in 10.0 mi South 6.9 mph - N/A   Unknown
6:33 PM -2.2 °F -18.9 °F -7.6 °F 78% 30.56 in 10.0 mi South 10.4 mph - N/A   Unknown
6:53 PM -0.4 °F -14.7 °F -5.8 °F 78% 30.56 in 10.0 mi South 8.1 mph - N/A   Unknown
7:13 PM -2.2 °F -16.8 °F -7.6 °F 78% 30.56 in 10.0 mi South 8.1 mph - N/A   Unknown
7:33 PM -2.2 °F -18.0 °F -7.6 °F 78% 30.55 in 10.0 mi South 9.2 mph - N/A   Unknown
7:54 PM -2.2 °F -16.8 °F -7.6 °F 78% 30.56 in 10.0 mi South 8.1 mph - N/A   Unknown
8:13 PM -2.2 °F -15.6 °F -7.6 °F 78% 30.56 in 10.0 mi South 6.9 mph - N/A   Unknown
8:34 PM -2.2 °F -15.6 °F -7.6 °F 78% 30.56 in 10.0 mi SSW 6.9 mph - N/A   Unknown
8:53 PM -4.0 °F -20.2 °F -9.4 °F 78% 30.54 in 10.0 mi South 9.2 mph - N/A   Unknown
9:14 PM -2.2 °F -18.0 °F -7.6 °F 78% 30.54 in 10.0 mi South 9.2 mph - N/A   Unknown
9:33 PM -2.2 °F -18.0 °F -7.6 °F 78% 30.53 in 10.0 mi South 9.2 mph - N/A   Unknown
9:53 PM -2.2 °F -20.7 °F -7.6 °F 78% 30.51 in 10.0 mi SSE 12.7 mph - N/A   Unknown
10:14 PM -0.4 °F -19.9 °F -5.8 °F 78% 30.49 in 10.0 mi SSE 15.0 mph - N/A   Unknown
10:33 PM 1.4 °F -17.6 °F -5.8 °F 72% 30.48 in 10.0 mi SSE 15.0 mph - N/A   Unknown
10:53 PM 1.4 °F -16.9 °F -5.8 °F 72% 30.48 in 10.0 mi South 13.8 mph - N/A   Unknown
11:14 PM 1.4 °F -17.6 °F -4.0 °F 78% 30.48 in 10.0 mi South 15.0 mph - N/A   Unknown
11:33 PM 1.4 °F -18.2 °F -4.0 °F 78% 30.47 in 10.0 mi South 16.1 mph - N/A   Unknown
11:53 PM 3.2 °F -16.5 °F -4.0 °F 72% 30.46 in 10.0 mi South 17.3 mph - N/A   Unknown